English version (google)  Retour à l'accueil Ecrire à l'auteur du site Runraid : Michel Jourdan


 Visitez La Boutique 



Les prochaines courses


Les derniers résultats

cliquez pour visualiser la page complète relatant la chronologie des éruptions du Piton de la Fournaise
éruptions Piton de la Fournaise


Ile de La Réunion

 Diagonale des Fous 

Ecrire au créateur du site : Michel Jourdan
Contact


2004-05-08 - 7eme Tchimbe Raid de la Martinique

Pour consulter le palmarès d'un coureur, un clic sur son nom !

Vous avez des remarques, corrections, ... sur ces résultats , un clic sur --> pour me transmettre toute information concernant les classements


7eme Tchimbe Raid de la Martinique - 2004 : classement des 122 finishers
Place Nom Temps Cat. Club Sexe Clt/cat.
Place Nom Temps Cat. Club Sexe Clt/cat.
1 Bidet Sebastien 8:58:35 M23 M 0
2 Varais Claude 9:27:16 M40 M 0
3 Varis Franck 9:32:20 M35 M 0
4 Carval Olivier 10:04:10 M35 M 0
5 Lacrampe Louis Felix 10:07:30 M35 M 0
6 Tramma Fred 10:10:50 M40 M 0
7 Gorgeons Jean Pierre 10:11:47 M 0
8 Dorval Eric 10:20:42 M35 M 0
9 Janvier Roger 10:40:04 M40 M 0
10 Porro Denis 10:40:10 M 0
11 Tabar Alex 11:07:02 M40 M 0
12 Langard Yann 11:07:30 M 0
13 Bach Frederic 11:12:35 M23 M 0
14 Emonides Marie Chantal 11:12:41 W35 F 1ere F 0
15 Manteaux Etienne 11:17:28 M 0
16 Zapha Gerard 11:30:07 M55 M 0
17 Legoas Olivier 11:48:32 M 0
18 Cultier Charles 11:52:18 M 0
19 Mevelec Eric 11:58:34 M23 M 0
20 Bain Louis Felix 11:59:08 M 0
21 Chenet Christophe 12:09:53 M35 M 0
22 Courant Guy 12:13:00 M45 M 0
23 Mathis Sylvie 12:14:40 W23 F 2 F 0
24 Descas William 12:28:05 M35 M 0
25 Garcia Jean Luc 12:28:05 M40 M 0
26 Charlec Felix 12:31:34 M45 M 0
27 Bardin Bernard 12:31:34 M 0
28 Lacle Louis 12:31:40 M23 M 0
29 Flahaut Yann 12:34:07 M 0
30 Lapointe Rosely 12:34:48 M 0
31 Bailly Pascal 12:44:18 M35 M 0
32 Leleu Pierre 12:44:18 M23 M 0
33 Chauve Jean Francois 12:56:05 M 0
34 Manquest Georges 12:56:28 M 0
35 Mercier Christophe 13:03:05 M23 M 0
36 Boulant Nicolas 13:06:44 M 0
37 Vertueux Jean Pierre 13:09:29 M 0
38 Maleau Willy 13:11:58 M35 M 0
39 Marques Andre 13:12:17 M55 M 0
40 Eichenlaub Stephane 13:12:26 M23 M 0
41 Angevin Julien 13:15:28 M 0
42 Cantobion Tony 13:20:29 M45 M 0
43 Christophe Jerome 13:21:14 M35 M 0
44 Jean Philippe Luciano 13:21:14 M23 M 0
45 Pasquin Francki 13:21:14 M 0
46 Garcia Fabrice 13:29:05 M23 M 0
47 Vroust Gerard 13:29:10 M35 M 0
48 Kermaidic Denis 13:30:00 M 0
49 Mathieu Leon 13:35:32 M 0
50 Emonides Michel 13:37:19 M35 M 0
51 Bocquelet Fabrice 13:39:55 M 0
52 Arrondel Olivier 13:44:57 M35 M 0
53 Varais Annicette 13:46:23 W40 F 3 F 0
54 Martin Jean Pierre 13:48:22 M40 M 0
55 Caius Jean Albert 13:50:30 M40 M 0
56 Williart Jean Francois 13:55:10 M23 M 0
57 Descas Gerard 13:57:40 M50 M 0
58 Begaud Cedric 13:59:59 M 0
59 Boisson Cyrille 14:01:05 M23 M 0
60 Villecroix Eric 14:01:05 M 0
61 Fibleuil Yvon 14:06:39 M40 M 0
62 Gouacide Thierry 14:18:14 M 0
63 Huber Nathalie 14:21:47 W23 F 4 F 0
64 Jousse Dominique 14:28:00 M 0
65 Cossart Benoit 14:28:05 M 0
66 Sorneau Didier 14:29:28 M 0
67 Grincourt Olivier 14:34:45 M 0
68 Vautor Muriel 14:39:11 W35 F 5 F 0
69 Torrens Thierry 14:39:23 M 0
70 Huber Alain 14:40:14 M40 M 0
71 Alleno Yvon 14:43:39 M 0
72 Mondesir Miguel 14:44:21 M 0
73 Christine Marcel 14:46:05 M 0
74 Exbrayat Andre 14:51:24 M 0
75 Hartog Thierry 14:46:24 M50 M 0
76 Bergoz Mossi Gilda 14:58:47 W23 F 6 F 0
77 Adenet Louvet Denis 15:02:42 M40 M 0
78 Chauve Pascal 15:04:20 M 0
79 Duquesnois Jean Christian 15:18:34 M 0
80 Louis Ferdinand Raymond 15:18:34 M45 M 0
81 Romagne Raymond 15:18:45 M45 M 0
82 Nayaradou Max 15:18:52 M40 M 0
83 Malonga Gabrielle 15:39:35 W23 F 7 F 0
84 Houzet Camille 15:39:38 F 8 F 0
85 Houzet Olivier 15:40:51 M 0
86 Bouard Fabrice 15:41:10 M 0
87 Bourrier Fabrice 15:46:58 M35 M 0
88 Decker Thierry 15:57:51 M35 M 0
89 Joyau Jean Paul 15:58:28 M 0
90 Neret Joel 15:58:33 M35 M 0
91 Plaissy Stephane 16:02:01 M35 M 0
92 Favre Patrice 16:04:28 M50 M 0
93 Lassalle Ygor 16:05:41 M 0
94 Duval Dominique 16:31:23 M40 M 0
95 Lavenir Cyrille 16:31:23 M 0
96 Trotignon Patrick 16:31:23 M40 M 0
97 Derotus Samuel 16:40:20 M 0
98 Sonel Edouard Teddy 16:40:20 M23 M 0
99 Baron Dominique 16:40:34 M 0
100 Gusto Philippe 16:45:05 M35 M 0
101 Ozier Lafontaine Michel 16:45:05 M23 M 0
102 Baudin Ludovic 16:51:05 M 0
103 Grenat Daniel 16:53:56 M 0
104 Marcet Jean Francois 17:02:39 M35 M 0
105 Beras Jacques 17:31:02 M 0
106 Castan Edith 17:36:32 W35 F 9 F 0
107 Ansel Yannick 17:53:44 M 0
108 Caillette Vincent 17:53:44 M 0
109 Caron Mickael 17:53:44 M23 M 0
110 Le Pors Valere 17:53:44 M 0
111 Juhel Laurent 18:23:27 M 0
112 Talmann Andre 18:23:27 M60 M 0
113 Naide Alain 18:52:04 M45 M 0
114 Barre Joel 19:01:01 M 0
115 Barre Virginie 19:01:17 F 10 F 0
116 Guiader Florence 19:03:08 W23 F 11 F 0
117 Ravoteur Jean 19:56:44 M 0
118 Comolli Didier 19:56:51 M 0
119 Gleizes Max 19:57:19 M 0
120 Thomas Vincent 19:57:19 M23 M 0
121 Baronnier Nicolas 20:10:51 M 0
122 Noyer Michel 20:31:58 M 0


ReferencementCe site est listé dans la catégorie Sport : Sports extrêmes Dictionnaire
| Accueil | La Réunion  Vue du ciel | Météo | Cyclones | Volcan | Cirques de Mafate , Cilaos , Salazie | Photos Randonnées | Randonnées Réunion: Randos Espiègle , Courses montagne | Diagonale des Fous |  Marathon des Sables | Voyages Les stats du site | Fonds écran | Plan du site | Blog de runraid | Galerie photos Sport Réunion |